User: anonymous   Login
Location: Unspecified
(0.0000°N, 0.0000°E)
Time: 02:04:01
(UTC+00:00)
Language:

STARLINK-4413 - Orbit

View from above orbital plane
View from above orbital plane
View from above satellite
View from above satellite

Ground track
Ground track

The orbit is defined by the following mean orbital elements,

1 53207U          26145.44272064 +.00000000 +00000-0 -98863-4 0 00006
2 53207  97.4490 205.3331 0001713 125.9511 234.1876 15.05656573    09
Epoch (UTC): 25 May 2026 10:37:31
Eccentricity: 0.0001713
inclination: 97.4490°
perigee height: 548 km
apogee height: 551 km
right ascension of ascending node: 205.3331°
argument of perigee: 125.9511°
revolutions per day: 15.05656573
mean anomaly at epoch: 234.1876°

The dashed part of the orbit path shows where the satellite is in the earth's shadow,  

DLR